SCP
0 0 0 0 0 0 0 0 0 0 0 0 0 0 0 0 0 0 0 0 0 0 0 0 0 0 -0 -0 -0 0 0 0 0 0 0 0 0 0 0 0 0 0 0
0 0 0 0 0 0 0 0 0 0 0 0 0 0 0 0 0 0 0 0 0 0 0 0 0 0 0 0 0 0 0 0 0 0 0 0 0 0 0 0 0 0 0
0 0 0 0 0 0 0 0 0 0 0 0 0 0 0 0 0 0 0 0 0 0 0 0 0 0 0 0 0 0 0 0 0 0 0 0 0 0 0 0 0 0 0
0 0 0 0 0 0 0 0 0 0 0 0 0 0 0 0 0 0 0 0 0 0 0 0 0 0 0 0 0 0 0 0 0 0 0 0 0 0 0 0 0 0 0
0 0 0 0 0 0 0 0 0 0 0 0 0 0 0 0 0 0 0 0 0 0 0 0 0 0 0 0 0 0 0 0 0 0 0 0 0 0 0 0 0 0 0
0 0 0 0 0 0 0 0 0 0 0 0 0 0 0 0 0 0 0 0 0 0 0 0 0 0 0 0 0 0 0 0 0 0 0 0 0 0 0 0 0 0 0
0 0 0 0 0 0 0 0 0 0 0 0 0 0 0 0 0 0 0 0 0 0 0 0 0 0 0 0 0 0 0 0 0 0 0 0 0 0 0 0 0 0 0
0 0 0 0 0 0 0 0 0 0 0 0 0 0 0 0 0 0 0 0 0 0 0 0 0 0 0 0 0 0 0 0 0 0 0 0 0 0 0 0 0 0 0
0 0 0 0 0 0 0 0 0 0 0 0 0 0 0 0 0 0 0 0 0 0 0 0 0 0 0 0 0 0 0 0 0 0 0 0 0 0 0 0 0 0 0
0 0 0 0 0 0 0 0 0 0 0 0 0 0 0 0 0 0 0 0 0 0 0 0 0 0 0 0 0 0 0 0 0 0 0 0 0 0 0 0 0 0 0
0 0 0 0 0 0 0 0 0 0 0 0 0 0 0 0 0 0 0 0 0 0 0 0 0 0 0 0 0 0 0 0 0 0 0 0 0 0 0 0 0 0 0
0 0 0 0 0 0 0 0 0 0 0 0 0 0 0 0 0 0 0 0 0 0 0 0 0 0 0 0 0 0 0 0 0 0 0 0 0 0 0 0 0 0 0
0 0 0 0 0 0 0 0 0 0 0 0 0 0 0 0 0 0 0 0 0 0 0 0 0 0 0 0 0 0 0 0 0 0 0 0 0 0 0 0 0 0 0
0 0 0 0 0 0 0 0 0 0 0 0 0 0 0 0 0 0 0 0 0 0 0 0 0 0 0 0 0 0 0 0 0 0 0 0 0 0 0 0 0 0 0
0 0 0 0 0 0 0 0 0 0 0 0 0 0 0 0 0 0 0 0 0 0 0 0 0 0 0 0 0 0 0 0 0 0 0 0 0 0 0 0 0 0 0
0 0 0 0 0 0 0 0 0 0 0 0 0 0 0 0 0 0 0 0 0 0 0 0 0 0 0 0 0 0 0 0 0 0 0 0 0 0 0 0 0 0 0
0 0 0 0 0 0 0 0 0 0 0 0 0 0 0 0 0 0 0 0 0 0 0 0 0 0 0 0 0 0 0 0 0 0 0 0 0 0 0 0 0 0 0
0 0 0 0 0 0 0 0 0 0 0 0 0 0 0 0 0 0 0 0 0 0 0 0 0 0 0 0 0 0 0 0 0 0 0 0 0 0 0 0 0 0 0
0 0 0 0 0 0 0 0 0 0 0 0 0 0 0 0 0 0 0 0 0 0 0 0 0 0 0 0 0 0 0 0 0 0 0 0 0 0 0 0 0 0 0
0 0 0 0 0 0 0 0 0 0 0 0 0 0 0 0 0 -0 0 -0 -0 0 0 0 0 0 0 0 0 0 0 0 0 0 0 0 0 0 0 0 0 0 0
0 0 0 0 0 0 0 0 0 0 0 0 0 0 0 0 -0 0 0 0 0 0 0 0 0 0 0 0 0 0 0 0 0 0 0 0 0 0 0 0 0 0 0
0 0 0 0 0 0 0 0 0 0 0 0 0 0 0 0 0 0 0 0 0 0 0 0 0 0 0 0 0 0 0 0 0 0 0 0 0 0 0 0 0 0 0
0 0 0 0 0 0 0 0 0 0 0 0 0 0 0 0 0 0 0 0 0 0 0 0 0 0 0 0 0 0 0 0 0 0 0 0 0 0 0 0 0 0 0
0 0 0 0 0 0 0 0 0 0 0 0 0 0 0 0 0 0 0 0 0 0 0 0 0 0 0 0 0 0 0 0 0 0 0 0 0 0 0 0 0 0 0
0 0 0 0 0 0 0 0 0 0 0 0 0 0 0 0 0 0 0 0 0 0 0 0 0 0 0 0 0 0 0 0 0 0 0 0 0 0 0 0 0 0 0
0 0 0 0 0 0 0 0 0 0 0 0 0 0 0 0 0 0 0 0 0 0 0 0 0 0 0 0 0 0 0 0 0 0 0 0 0 0 0 0 0 0 0
Wind_Speed_500mb
9 13 16 19 21 24 27 29 31 34 36 36 38 37 36 37 35 37 39 41 39 41 43 44 42 40 41 38 32 37 46 47 47 42 36 31 22 18 17 18 19 19 14
14 18 21 23 26 29 32 36 38 41 44 45 44 45 45 44 43 42 44 47 49 46 47 49 45 42 44 44 43 43 44 46 51 42 34 25 22 22 19 19 20 21 23
16 21 25 28 31 34 39 45 47 48 50 50 52 54 55 51 51 50 48 51 51 51 44 43 43 45 46 46 43 46 43 47 41 32 30 27 24 21 21 23 20 25 29
22 25 30 34 41 43 47 50 51 55 53 53 50 48 47 53 56 54 53 51 50 46 45 44 40 43 45 44 45 45 46 42 27 25 26 27 24 28 32 28 28 31 35
26 30 33 36 44 49 50 51 52 56 63 50 51 55 54 56 56 54 52 51 52 47 43 44 42 44 46 46 44 48 44 37 36 41 41 43 46 38 34 38 35 34 37
29 32 35 40 45 50 52 55 54 49 51 49 50 54 54 53 51 47 43 45 46 44 40 43 44 47 49 50 46 44 44 43 46 44 45 43 43 37 40 40 35 36 41
35 39 48 50 52 50 47 45 45 47 45 38 46 35 46 36 30 39 37 40 50 47 49 48 43 45 50 52 48 48 51 49 42 42 47 46 40 36 35 36 33 40 46
36 40 41 38 38 37 36 36 36 38 39 33 31 40 25 42 15 31 47 45 48 49 51 48 48 50 50 50 41 44 50 50 47 48 48 45 44 47 48 42 39 35 47
27 27 27 28 28 29 31 32 34 35 37 39 28 25 20 18 45 36 41 43 48 57 60 60 54 55 58 49 47 52 53 59 57 51 54 48 50 53 54 42 36 37 49
16 19 22 25 27 28 29 31 33 35 38 40 41 28 36 38 39 44 36 48 53 48 54 61 56 62 58 56 59 60 57 61 64 64 62 63 57 54 51 48 43 40 45
21 24 25 25 26 28 29 30 31 32 34 35 34 40 46 46 38 40 57 48 61 59 66 68 65 66 63 61 63 65 70 67 68 66 71 76 65 60 57 50 42 42 49
29 32 36 38 38 36 38 38 35 34 36 37 38 38 38 36 47 49 63 69 72 73 63 70 68 68 66 64 67 67 68 73 71 72 78 87 74 69 64 58 48 46 52
39 39 36 35 37 39 41 41 41 40 41 41 42 43 42 42 43 44 48 63 67 86 89 79 78 69 69 69 70 59 68 74 82 82 82 87 84 81 72 69 60 53 62
33 36 37 39 39 40 42 43 45 45 45 47 48 48 49 48 47 46 47 52 74 81 92 69 60 64 64 66 64 66 70 70 71 82 99 90 93 88 83 77 73 63 68
25 28 34 39 43 48 52 54 55 55 53 53 54 55 55 55 53 51 49 48 44 62 109 71 59 48 63 65 69 66 75 77 79 82 94 102 95 96 96 86 80 77 74
27 33 38 42 46 49 51 53 53 53 53 51 54 54 53 53 54 55 53 49 41 46 71 94 91 79 77 81 79 78 81 85 86 90 88 100 98 103 102 96 93 88 81
34 38 42 44 45 46 47 47 48 49 49 49 49 52 51 52 51 49 46 44 42 39 61 120 86 92 87 78 80 85 84 83 91 94 97 99 107 109 110 104 99 96 90
34 36 38 38 38 39 40 43 45 49 53 55 56 57 57 57 52 52 48 44 44 42 52 84 100 101 88 80 84 82 89 96 89 92 98 101 100 108 117 108 103 102 100
33 34 35 36 39 41 43 47 53 56 57 58 58 59 58 59 62 59 56 55 58 52 56 71 103 93 94 87 89 88 92 102 100 92 91 98 97 101 113 115 109 109 109
31 31 31 34 39 45 50 54 56 57 59 60 60 60 60 57 60 60 56 54 53 60 64 72 85 96 90 86 81 91 103 95 105 99 96 92 96 105 114 120 109 109 113
27 29 33 38 42 44 48 54 58 61 63 64 62 63 62 69 76 78 75 69 62 67 74 78 85 93 92 87 80 84 93 100 105 97 99 103 90 97 110 120 117 109 116
27 31 34 37 39 43 48 54 60 65 67 68 71 73 75 80 86 92 89 78 66 74 82 82 93 90 100 89 90 88 90 94 99 80 86 107 93 99 103 122 129 122 119
28 28 31 35 41 47 53 58 64 71 73 75 81 84 88 88 98 93 87 80 81 75 75 86 100 100 104 96 96 97 95 95 103 102 84 103 100 100 89 116 122 123 128
27 30 34 38 44 50 58 66 72 75 80 81 80 79 82 91 73 77 91 99 100 99 93 86 90 103 104 108 104 106 111 113 115 111 101 104 88 97 98 96 119 118 126
26 29 34 41 47 55 63 69 76 82 86 79 79 76 77 69 72 84 91 105 110 106 97 88 88 95 101 106 102 106 108 100 105 99 93 98 92 85 87 96 108 113 116
24 29 37 46 54 60 67 74 80 81 73 77 85 79 65 70 82 87 92 95 103 106 106 114 112 102 91 88 87 85 89 97 93 99 89 87 88 80 59 83 101 105 99
Wind_Direction_500mb
351 343 340 338 337 331 328 327 324 322 320 320 319 318 318 313 313 307 306 306 301 301 302 301 300 299 290 289 280 287 294 299 298 296 283 275 273 263 260 274 284 288 268
333 328 326 324 324 320 319 316 314 312 311 310 310 309 309 306 305 303 304 305 307 302 296 296 289 292 295 288 285 284 288 294 297 288 272 261 252 260 272 278 279 275 274
307 308 309 312 312 313 314 314 315 313 311 307 306 305 303 302 301 301 301 303 304 304 301 297 294 289 298 293 285 278 285 295 294 273 252 246 254 268 277 269 271 277 274
303 309 313 316 313 310 312 312 312 307 304 301 299 297 295 296 299 299 298 298 301 302 296 302 295 287 289 291 288 280 283 295 273 282 262 279 259 285 271 265 279 277 282
302 303 305 304 301 304 305 302 301 304 304 304 302 300 300 298 300 300 299 296 296 295 292 303 296 287 283 285 284 283 279 274 280 286 269 275 272 278 256 261 268 276 285
302 301 306 308 305 305 304 305 306 307 307 309 306 306 305 305 303 297 295 294 293 294 293 298 296 290 290 282 276 274 269 269 283 278 271 273 282 274 261 255 265 277 279
301 308 307 303 302 303 304 305 306 307 309 310 313 309 307 307 303 301 296 307 301 296 293 291 289 296 292 288 275 268 267 271 269 274 279 282 274 269 265 262 263 273 277
299 300 303 307 310 313 313 313 313 314 316 322 322 325 321 313 307 309 301 307 306 301 298 294 293 297 301 290 279 280 266 266 264 272 275 274 269 279 282 274 260 249 267
315 317 321 323 325 327 326 326 324 323 322 326 322 311 323 300 310 315 309 308 309 306 303 302 297 295 303 294 277 282 287 269 259 259 265 273 272 277 273 272 261 233 257
335 336 336 335 334 333 329 330 331 331 330 327 322 314 305 293 304 307 300 294 303 294 290 301 293 295 296 292 286 283 285 272 264 258 252 268 270 273 269 269 258 228 230
350 348 342 337 335 335 334 332 331 331 330 327 324 321 316 314 313 302 305 299 295 294 289 288 286 281 290 285 283 288 281 283 266 260 254 261 261 271 267 262 253 227 222
357 353 349 345 343 342 342 340 338 335 336 333 329 326 321 315 310 310 307 305 301 299 297 293 286 283 285 286 283 282 277 282 277 256 253 253 259 258 259 261 246 227 226
330 324 332 336 337 337 333 330 331 331 328 324 322 322 321 319 314 310 302 301 301 302 301 298 294 293 288 289 289 281 284 278 276 260 256 256 256 256 260 260 250 229 228
319 325 330 330 328 330 330 328 327 326 325 323 320 317 316 313 311 309 308 307 307 303 302 298 292 290 286 287 283 284 283 282 276 270 259 257 256 255 252 258 257 242 226
312 319 327 329 331 328 326 327 326 324 324 324 322 320 319 317 314 310 307 303 296 302 301 300 299 293 293 289 284 281 274 273 276 278 267 257 259 258 255 248 252 246 227
325 326 324 323 323 322 322 323 324 324 325 325 323 323 320 318 318 317 315 309 298 288 289 292 295 295 296 295 289 284 278 276 274 273 273 264 256 260 259 247 245 246 229
324 321 320 320 320 321 323 323 325 326 328 330 329 328 328 325 324 319 315 310 304 295 288 292 296 299 298 295 297 295 288 280 275 271 270 268 269 258 258 251 246 240 229
321 322 324 326 327 329 332 333 338 341 343 343 342 341 342 339 334 333 326 319 310 302 294 294 300 302 301 300 296 291 288 287 280 274 269 269 269 261 252 250 246 237 228
329 335 339 340 342 344 346 348 351 351 350 349 348 347 343 340 338 333 332 326 322 316 305 298 300 302 300 300 298 294 292 292 288 280 274 272 270 265 253 252 244 236 228
340 344 348 351 355 357 356 355 354 353 351 349 346 344 339 336 331 333 326 322 319 314 311 305 301 301 300 301 296 294 293 289 291 291 285 277 273 266 252 249 241 237 228
351 357 360 359 359 359 358 356 353 352 348 344 342 339 335 333 335 333 330 325 322 317 311 306 300 297 295 297 294 293 289 291 287 285 281 283 277 269 254 242 241 233 230
356 360 3 3 3 4 359 354 350 346 343 341 336 334 332 331 329 327 324 324 318 312 306 303 297 293 293 293 292 290 289 288 287 279 275 281 279 270 260 241 240 236 227
360 1 9 9 4 359 353 348 344 341 339 336 333 332 330 330 328 326 324 320 316 311 301 298 293 291 292 294 292 289 285 284 280 285 273 267 270 272 267 246 236 232 228
5 9 10 3 358 351 346 344 341 339 336 335 333 333 328 329 330 326 323 319 313 310 308 303 295 294 293 295 291 288 285 283 281 281 275 263 259 260 264 257 242 231 227
5 5 359 354 348 345 345 342 339 339 337 335 332 330 329 329 324 326 321 315 313 312 311 306 300 295 292 289 289 289 281 281 277 277 274 257 255 254 245 246 247 231 223
358 354 349 347 346 345 343 341 341 340 336 330 332 332 330 325 326 324 319 317 312 313 315 309 305 305 303 300 296 293 288 277 274 277 269 255 245 240 226 229 234 230 218
Wind_Speed_850mb
9 13 16 19 21 24 27 29 31 34 36 36 38 37 36 37 35 37 39 41 39 41 43 44 42 40 41 38 32 37 46 47 47 42 36 31 22 18 17 18 19 19 14
14 18 21 23 26 29 32 36 38 41 44 45 44 45 45 44 43 42 44 47 49 46 47 49 45 42 44 44 43 43 44 46 51 42 34 25 22 22 19 19 20 21 23
16 21 25 28 31 34 39 45 47 48 50 50 52 54 55 51 51 50 48 51 51 51 44 43 43 45 46 46 43 46 43 47 41 32 30 27 24 21 21 23 20 25 29
22 25 30 34 41 43 47 50 51 55 53 53 50 48 47 53 56 54 53 51 50 46 45 44 40 43 45 44 45 45 46 42 27 25 26 27 24 28 32 28 28 31 35
26 30 33 36 44 49 50 51 52 56 63 50 51 55 54 56 56 54 52 51 52 47 43 44 42 44 46 46 44 48 44 37 36 41 41 43 46 38 34 38 35 34 37
29 32 35 40 45 50 52 55 54 49 51 49 50 54 54 53 51 47 43 45 46 44 40 43 44 47 49 50 46 44 44 43 46 44 45 43 43 37 40 40 35 36 41
35 39 48 50 52 50 47 45 45 47 45 38 46 35 46 36 30 39 37 40 50 47 49 48 43 45 50 52 48 48 51 49 42 42 47 46 40 36 35 36 33 40 46
36 40 41 38 38 37 36 36 36 38 39 33 31 40 25 42 15 31 47 45 48 49 51 48 48 50 50 50 41 44 50 50 47 48 48 45 44 47 48 42 39 35 47
27 27 27 28 28 29 31 32 34 35 37 39 28 25 20 18 45 36 41 43 48 57 60 60 54 55 58 49 47 52 53 59 57 51 54 48 50 53 54 42 36 37 49
16 19 22 25 27 28 29 31 33 35 38 40 41 28 36 38 39 44 36 48 53 48 54 61 56 62 58 56 59 60 57 61 64 64 62 63 57 54 51 48 43 40 45
21 24 25 25 26 28 29 30 31 32 34 35 34 40 46 46 38 40 57 48 61 59 66 68 65 66 63 61 63 65 70 67 68 66 71 76 65 60 57 50 42 42 49
29 32 36 38 38 36 38 38 35 34 36 37 38 38 38 36 47 49 63 69 72 73 63 70 68 68 66 64 67 67 68 73 71 72 78 87 74 69 64 58 48 46 52
39 39 36 35 37 39 41 41 41 40 41 41 42 43 42 42 43 44 48 63 67 86 89 79 78 69 69 69 70 59 68 74 82 82 82 87 84 81 72 69 60 53 62
33 36 37 39 39 40 42 43 45 45 45 47 48 48 49 48 47 46 47 52 74 81 92 69 60 64 64 66 64 66 70 70 71 82 99 90 93 88 83 77 73 63 68
25 28 34 39 43 48 52 54 55 55 53 53 54 55 55 55 53 51 49 48 44 62 109 71 59 48 63 65 69 66 75 77 79 82 94 102 95 96 96 86 80 77 74
27 33 38 42 46 49 51 53 53 53 53 51 54 54 53 53 54 55 53 49 41 46 71 94 91 79 77 81 79 78 81 85 86 90 88 100 98 103 102 96 93 88 81
34 38 42 44 45 46 47 47 48 49 49 49 49 52 51 52 51 49 46 44 42 39 61 120 86 92 87 78 80 85 84 83 91 94 97 99 107 109 110 104 99 96 90
34 36 38 38 38 39 40 43 45 49 53 55 56 57 57 57 52 52 48 44 44 42 52 84 100 101 88 80 84 82 89 96 89 92 98 101 100 108 117 108 103 102 100
33 34 35 36 39 41 43 47 53 56 57 58 58 59 58 59 62 59 56 55 58 52 56 71 103 93 94 87 89 88 92 102 100 92 91 98 97 101 113 115 109 109 109
31 31 31 34 39 45 50 54 56 57 59 60 60 60 60 57 60 60 56 54 53 60 64 72 85 96 90 86 81 91 103 95 105 99 96 92 96 105 114 120 109 109 113
27 29 33 38 42 44 48 54 58 61 63 64 62 63 62 69 76 78 75 69 62 67 74 78 85 93 92 87 80 84 93 100 105 97 99 103 90 97 110 120 117 109 116
27 31 34 37 39 43 48 54 60 65 67 68 71 73 75 80 86 92 89 78 66 74 82 82 93 90 100 89 90 88 90 94 99 80 86 107 93 99 103 122 129 122 119
28 28 31 35 41 47 53 58 64 71 73 75 81 84 88 88 98 93 87 80 81 75 75 86 100 100 104 96 96 97 95 95 103 102 84 103 100 100 89 116 122 123 128
27 30 34 38 44 50 58 66 72 75 80 81 80 79 82 91 73 77 91 99 100 99 93 86 90 103 104 108 104 106 111 113 115 111 101 104 88 97 98 96 119 118 126
26 29 34 41 47 55 63 69 76 82 86 79 79 76 77 69 72 84 91 105 110 106 97 88 88 95 101 106 102 106 108 100 105 99 93 98 92 85 87 96 108 113 116
24 29 37 46 54 60 67 74 80 81 73 77 85 79 65 70 82 87 92 95 103 106 106 114 112 102 91 88 87 85 89 97 93 99 89 87 88 80 59 83 101 105 99
Wind_Direction_850mb
351 343 340 338 337 331 328 327 324 322 320 320 319 318 318 313 313 307 306 306 301 301 302 301 300 299 290 289 280 287 294 299 298 296 283 275 273 263 260 274 284 288 268
333 328 326 324 324 320 319 316 314 312 311 310 310 309 309 306 305 303 304 305 307 302 296 296 289 292 295 288 285 284 288 294 297 288 272 261 252 260 272 278 279 275 274
307 308 309 312 312 313 314 314 315 313 311 307 306 305 303 302 301 301 301 303 304 304 301 297 294 289 298 293 285 278 285 295 294 273 252 246 254 268 277 269 271 277 274
303 309 313 316 313 310 312 312 312 307 304 301 299 297 295 296 299 299 298 298 301 302 296 302 295 287 289 291 288 280 283 295 273 282 262 279 259 285 271 265 279 277 282
302 303 305 304 301 304 305 302 301 304 304 304 302 300 300 298 300 300 299 296 296 295 292 303 296 287 283 285 284 283 279 274 280 286 269 275 272 278 256 261 268 276 285
302 301 306 308 305 305 304 305 306 307 307 309 306 306 305 305 303 297 295 294 293 294 293 298 296 290 290 282 276 274 269 269 283 278 271 273 282 274 261 255 265 277 279
301 308 307 303 302 303 304 305 306 307 309 310 313 309 307 307 303 301 296 307 301 296 293 291 289 296 292 288 275 268 267 271 269 274 279 282 274 269 265 262 263 273 277
299 300 303 307 310 313 313 313 313 314 316 322 322 325 321 313 307 309 301 307 306 301 298 294 293 297 301 290 279 280 266 266 264 272 275 274 269 279 282 274 260 249 267
315 317 321 323 325 327 326 326 324 323 322 326 322 311 323 300 310 315 309 308 309 306 303 302 297 295 303 294 277 282 287 269 259 259 265 273 272 277 273 272 261 233 257
335 336 336 335 334 333 329 330 331 331 330 327 322 314 305 293 304 307 300 294 303 294 290 301 293 295 296 292 286 283 285 272 264 258 252 268 270 273 269 269 258 228 230
350 348 342 337 335 335 334 332 331 331 330 327 324 321 316 314 313 302 305 299 295 294 289 288 286 281 290 285 283 288 281 283 266 260 254 261 261 271 267 262 253 227 222
357 353 349 345 343 342 342 340 338 335 336 333 329 326 321 315 310 310 307 305 301 299 297 293 286 283 285 286 283 282 277 282 277 256 253 253 259 258 259 261 246 227 226
330 324 332 336 337 337 333 330 331 331 328 324 322 322 321 319 314 310 302 301 301 302 301 298 294 293 288 289 289 281 284 278 276 260 256 256 256 256 260 260 250 229 228
319 325 330 330 328 330 330 328 327 326 325 323 320 317 316 313 311 309 308 307 307 303 302 298 292 290 286 287 283 284 283 282 276 270 259 257 256 255 252 258 257 242 226
312 319 327 329 331 328 326 327 326 324 324 324 322 320 319 317 314 310 307 303 296 302 301 300 299 293 293 289 284 281 274 273 276 278 267 257 259 258 255 248 252 246 227
325 326 324 323 323 322 322 323 324 324 325 325 323 323 320 318 318 317 315 309 298 288 289 292 295 295 296 295 289 284 278 276 274 273 273 264 256 260 259 247 245 246 229
324 321 320 320 320 321 323 323 325 326 328 330 329 328 328 325 324 319 315 310 304 295 288 292 296 299 298 295 297 295 288 280 275 271 270 268 269 258 258 251 246 240 229
321 322 324 326 327 329 332 333 338 341 343 343 342 341 342 339 334 333 326 319 310 302 294 294 300 302 301 300 296 291 288 287 280 274 269 269 269 261 252 250 246 237 228
329 335 339 340 342 344 346 348 351 351 350 349 348 347 343 340 338 333 332 326 322 316 305 298 300 302 300 300 298 294 292 292 288 280 274 272 270 265 253 252 244 236 228
340 344 348 351 355 357 356 355 354 353 351 349 346 344 339 336 331 333 326 322 319 314 311 305 301 301 300 301 296 294 293 289 291 291 285 277 273 266 252 249 241 237 228
351 357 360 359 359 359 358 356 353 352 348 344 342 339 335 333 335 333 330 325 322 317 311 306 300 297 295 297 294 293 289 291 287 285 281 283 277 269 254 242 241 233 230
356 360 3 3 3 4 359 354 350 346 343 341 336 334 332 331 329 327 324 324 318 312 306 303 297 293 293 293 292 290 289 288 287 279 275 281 279 270 260 241 240 236 227
360 1 9 9 4 359 353 348 344 341 339 336 333 332 330 330 328 326 324 320 316 311 301 298 293 291 292 294 292 289 285 284 280 285 273 267 270 272 267 246 236 232 228
5 9 10 3 358 351 346 344 341 339 336 335 333 333 328 329 330 326 323 319 313 310 308 303 295 294 293 295 291 288 285 283 281 281 275 263 259 260 264 257 242 231 227
5 5 359 354 348 345 345 342 339 339 337 335 332 330 329 329 324 326 321 315 313 312 311 306 300 295 292 289 289 289 281 281 277 277 274 257 255 254 245 246 247 231 223
358 354 349 347 346 345 343 341 341 340 336 330 332 332 330 325 326 324 319 317 312 313 315 309 305 305 303 300 296 293 288 277 274 277 269 255 245 240 226 229 234 230 218